FW0772 Weather Reports


Display with metric or nautical units.
time (UTC)temp
F
wind
direction
speed
MPH
gust
MPH
rain 1hr
in
rain 24hr
in
rain mn
in
humidity
%
barometer
mb
20240525043045 59 0 1.0 4.0 0.00 0.00 0.00 95 1017.6
20240525041536 59 0 0.0 3.0 0.00 0.00 0.00 95 1017.6
20240525040059 59 131 0.0 2.0 0.00 0.00 0.00 95 1017.4
20240525034539 58 0 0.0 1.0 0.00 0.00 0.00 95 1017.4
20240525033105 58 0 0.0 0.0 0.00 0.00 0.00 95 1017.4
20240525031559 57 0 0.0 1.0 0.00 0.00 0.00 94 1017.5
20240525030049 57 0 0.0 0.0 0.00 0.00 0.00 94 1017.5
20240525024541 57 0 0.0 1.0 0.00 0.00 0.00 93 1017.7
20240525023125 57 0 0.0 0.0 0.00 0.00 0.00 93 1017.6
20240525021547 58 0 0.0 1.0 0.00 0.00 0.00 92 1017.4
20240525020032 58 0 0.0 1.0 0.00 0.00 0.00 91 1017.6
20240525014558 59 0 0.0 2.0 0.00 0.00 0.00 92 1017.7
20240525013042 59 0 0.0 2.0 0.00 0.00 0.00 91 1017.7
20240525011535 58 94 0.0 2.0 0.00 0.00 0.00 91 1017.9
20240525010035 58 0 0.0 2.0 0.00 0.00 0.00 90 1018.0
20240525004551 58 0 0.0 2.0 0.00 0.00 0.00 89 1018.0
20240525003042 58 0 0.0 2.0 0.00 0.00 0.00 88 1018.1
20240525001529 58 0 0.0 2.0 0.00 0.00 0.00 87 1018.1
20240525000039 59 0 0.0 3.0 0.00 0.00 0.00 86 1018.3
20240524234541 58 28 0.0 2.0 0.00 0.00 0.00 86 1018.1
20240524233030 58 42 0.0 2.0 0.00 0.00 0.00 86 1018.2
20240524231533 58 36 0.0 4.0 0.00 0.00 0.00 85 1018.2
20240524230043 58 0 0.0 3.0 0.00 0.00 0.00 84 1018.2
20240524224535 58 32 0.0 3.0 0.00 0.00 0.00 83 1018.0
20240524223041 58 0 0.0 3.0 0.00 0.00 0.00 82 1018.1
20240524221531 58 0 0.0 4.0 0.00 0.00 0.00 81 1018.0
20240524220038 59 11 0.0 3.0 0.00 0.00 0.00 80 1018.1
20240524214526 59 5 1.0 3.0 0.00 0.00 0.00 79 1018.3
20240524213021 59 21 0.0 3.0 0.00 0.00 0.00 78 1018.3
20240524211521 60 29 1.0 4.0 0.00 0.00 0.00 78 1018.6
20240524210032 60 0 0.0 3.0 0.00 0.00 0.00 78 1018.8
20240524204527 60 13 1.0 3.0 0.00 0.00 0.00 77 1018.9
20240524203036 60 0 1.0 4.0 0.00 0.00 0.00 77 1018.8
20240524201534 61 0 0.0 2.0 0.00 0.00 0.00 76 1018.7
20240524200034 61 38 0.0 3.0 0.00 0.00 0.00 74 1018.7
20240524194533 62 19 1.0 5.0 0.00 0.00 0.00 72 1018.7
20240524193048 62 0 1.0 3.0 0.00 0.00 0.00 71 1019.1
20240524191539 63 0 1.0 4.0 0.00 0.00 0.00 70 1019.1
20240524190041 64 10 0.0 3.0 0.00 0.00 0.00 69 1019.1
20240524184527 65 26 1.0 4.0 0.00 0.00 0.00 68 1019.1
20240524183031 66 32 0.0 4.0 0.00 0.00 0.00 66 1019.2
20240524181545 67 30 1.0 8.0 0.00 0.00 0.00 64 1019.1
20240524180026 68 19 2.0 8.0 0.00 0.00 0.00 63 1019.1
20240524174529 69 347 1.0 5.0 0.00 0.00 0.00 63 1019.1
20240524173024 69 44 2.0 10.0 0.00 0.00 0.00 62 1019.0
20240524171534 70 335 3.0 10.0 0.00 0.00 0.00 60 1019.1
20240524170048 70 0 2.0 9.0 0.00 0.00 0.00 61 1019.2
20240524164527 71 0 2.0 11.0 0.00 0.00 0.00 61 1019.1
20240524163032 71 78 2.0 7.0 0.00 0.00 0.00 60 1019.3
20240524161533 72 77 2.0 9.0 0.00 0.00 0.00 62 1019.2
20240524160038 72 86 2.0 11.0 0.00 0.00 0.00 62 1019.2
20240524154531 73 55 2.0 9.0 0.00 0.00 0.00 62 1019.2
20240524153036 73 9 2.0 8.0 0.00 0.00 0.00 62 1019.5
20240524151527 73 352 3.0 13.0 0.00 0.00 0.00 64 1019.4
20240524150023 73 5 2.0 10.0 0.00 0.00 0.00 63 1019.5
20240524144531 74 43 3.0 10.0 0.00 0.00 0.00 60 1019.7
20240524143030 74 28 3.0 9.0 0.00 0.00 0.00 63 1019.7
20240524141526 73 86 2.0 13.0 0.00 0.00 0.00 64 1019.7
20240524140020 74 113 2.0 9.0 0.00 0.00 0.00 65 1019.8
20240524134526 74 102 2.0 10.0 0.00 0.00 0.00 66 1019.8
20240524133029 74 15 3.0 10.0 0.00 0.00 0.00 65 1020.1
20240524131522 74 37 3.0 11.0 0.00 0.00 0.00 66 1020.1
20240524130021 71 5 2.0 8.0 0.00 0.00 0.00 72 1020.2
20240524124521 70 5 1.0 8.0 0.00 0.00 0.00 74 1020.2
20240524123024 69 22 2.0 8.0 0.00 0.00 0.00 74 1020.4
20240524121551 70 51 1.0 7.0 0.00 0.00 0.00 73 1020.4
20240524120026 70 352 1.0 5.0 0.00 0.00 0.00 72 1020.4
20240524114534 70 24 1.0 5.0 0.00 0.00 0.00 72 1020.4
20240524113022 71 38 1.0 7.0 0.00 0.00 0.00 68 1020.5
20240524111521 73 12 2.0 6.0 0.00 0.00 0.00 65 1020.6
20240524110021 72 38 0.0 6.0 0.00 0.00 0.00 70 1020.6
20240524104523 71 9 1.0 5.0 0.00 0.00 0.00 71 1020.6
20240524103022 70 0 2.0 6.0 0.00 0.00 0.00 73 1020.9
20240524101528 70 51 1.0 4.0 0.00 0.00 0.00 73 1020.7
20240524100024 70 5 1.0 3.0 0.00 0.00 0.00 70 1020.8
20240524094520 72 5 1.0 4.0 0.00 0.00 0.00 68 1020.7
20240524093032 73 0 1.0 5.0 0.00 0.00 0.00 62 1020.6
20240524091523 73 352 1.0 5.0 0.00 0.00 0.00 63 1020.8
20240524090023 74 117 2.0 4.0 0.00 0.00 0.00 60 1020.6
20240524084522 75 5 1.0 9.0 0.00 0.00 0.00 65 1020.7
20240524083022 73 23 1.0 4.0 0.00 0.00 0.00 63 1020.8
20240524081532 73 0 1.0 4.0 0.00 0.00 0.00 65 1020.7
20240524080043 71 0 1.0 3.0 0.00 0.00 0.00 73 1020.7
20240524074530 68 0 0.0 3.0 0.00 0.01 0.00 89 1020.7
20240524073025 66 0 0.0 2.0 0.00 0.01 0.00 93 1020.6
20240524071524 64 264 1.0 3.0 0.00 0.01 0.00 96 1020.7
20240524070027 64 0 0.0 3.0 0.00 0.01 0.00 98 1020.7
20240524064526 63 0 0.0 0.0 0.00 0.03 0.00 99 1020.7
20240524063022 62 0 0.0 0.0 0.00 0.03 0.00 99 1020.6
20240524061523 62 0 0.0 0.0 0.00 0.03 0.00 99 1020.6
20240524060025 61 0 0.0 0.0 0.00 0.03 0.00 99 1020.4
20240524054523 60 0 0.0 0.0 0.00 0.17 0.00 99 1020.5
20240524053026 59 0 0.0 0.0 0.00 0.17 0.00 99 1020.2
20240524051522 58 0 0.0 0.0 0.00 0.17 0.00 99 1020.2
20240524050023 56 0 0.0 0.0 0.00 0.17 0.00 99 1020.2
20240524044525 55 0 0.0 0.0 0.00 0.29 0.00 98 1020.0